Time,TemperatureF,DewpointF,PressureIn,WindDirection,WindDirectionDegrees,WindSpeedMPH,WindSpeedGustMPH,Humidity,HourlyPrecipIn,Conditions,Clouds,dailyrainin,SoftwareType,DateUTC
2013-01-15 00:02:00,35.0,-99.9,-100.00,WSW,244,2.0,-999.0,-999,-99.99,,,-99.99,,2013-01-15 08:02:00,
2013-01-15 00:12:00,35.0,-99.9,-100.00,WSW,244,2.0,-999.0,-999,-99.99,,,-99.99,,2013-01-15 08:12:00,
2013-01-15 00:20:00,36.0,-99.9,-100.00,WSW,246,2.0,-999.0,-999,-99.99,,,-99.99,,2013-01-15 08:20:00,
2013-01-15 01:02:00,36.0,-99.9,-100.00,WSW,246,2.0,-999.0,-999,-99.99,,,-99.99,,2013-01-15 09:02:00,
2013-01-15 01:12:00,36.0,-99.9,-100.00,WSW,246,2.0,-999.0,-999,-99.99,,,-99.99,,2013-01-15 09:12:00,
2013-01-15 01:20:00,36.0,-99.9,-100.00,West,273,1.0,-999.0,-999,-99.99,,,-99.99,,2013-01-15 09:20:00,
2013-01-15 02:02:00,36.0,-99.9,-100.00,West,273,1.0,-999.0,-999,-99.99,,,-99.99,,2013-01-15 10:02:00,
2013-01-15 02:10:00,36.0,-99.9,-100.00,WSW,256,3.0,-999.0,-999,-99.99,,,-99.99,,2013-01-15 10:10:00,
2013-01-15 02:12:00,36.0,-99.9,-100.00,West,273,1.0,-999.0,-999,-99.99,,,-99.99,,2013-01-15 10:12:00,
2013-01-15 03:00:00,36.0,-99.9,-100.00,WSW,248,5.0,-999.0,-999,-99.99,,,-99.99,,2013-01-15 11:00:00,
2013-01-15 03:03:00,36.0,-99.9,-100.00,WSW,256,3.0,-999.0,-999,-99.99,,,-99.99,,2013-01-15 11:03:00,
2013-01-15 04:20:00,36.0,-99.9,-100.00,WSW,253,3.0,-999.0,-999,-99.99,,,-99.99,,2013-01-15 12:20:00,
2013-01-15 05:03:00,36.0,-99.9,-100.00,WSW,253,3.0,-999.0,-999,-99.99,,,-99.99,,2013-01-15 13:03:00,
2013-01-15 05:13:00,36.0,-99.9,-100.00,WSW,253,3.0,-999.0,-999,-99.99,,,-99.99,,2013-01-15 13:13:00,
2013-01-15 05:20:00,36.0,-99.9,-100.00,SW,233,1.0,-999.0,-999,-99.99,,,-99.99,,2013-01-15 13:20:00,
2013-01-15 06:03:00,36.0,-99.9,-100.00,SW,233,1.0,-999.0,-999,-99.99,,,-99.99,,2013-01-15 14:03:00,
2013-01-15 06:13:00,36.0,-99.9,-100.00,SW,233,1.0,-999.0,-999,-99.99,,,-99.99,,2013-01-15 14:13:00,
2013-01-15 06:20:00,36.0,-99.9,-100.00,SW,233,3.0,-999.0,-999,-99.99,,,-99.99,,2013-01-15 14:20:00,
2013-01-15 07:03:00,36.0,-99.9,-100.00,SW,233,3.0,-999.0,-999,-99.99,,,-99.99,,2013-01-15 15:03:00,
2013-01-15 07:13:00,36.0,-99.9,-100.00,SW,233,3.0,-999.0,-999,-99.99,,,-99.99,,2013-01-15 15:13:00,
2013-01-15 07:20:00,37.0,-99.9,-100.00,WSW,254,3.0,-999.0,-999,-99.99,,,-99.99,,2013-01-15 15:20:00,
2013-01-15 08:03:00,37.0,-99.9,-100.00,WSW,254,3.0,-999.0,-999,-99.99,,,-99.99,,2013-01-15 16:03:00,
2013-01-15 08:12:00,37.0,-99.9,-100.00,WSW,254,3.0,-999.0,-999,-99.99,,,-99.99,,2013-01-15 16:12:00,
2013-01-15 08:20:00,37.0,-99.9,-100.00,WSW,256,6.0,-999.0,-999,-99.99,,,-99.99,,2013-01-15 16:20:00,
2013-01-15 09:04:00,37.0,-99.9,-100.00,WSW,256,6.0,-999.0,-999,-99.99,,,-99.99,,2013-01-15 17:04:00,
2013-01-15 09:13:00,37.0,-99.9,-100.00,WSW,256,6.0,-999.0,-999,-99.99,,,-99.99,,2013-01-15 17:13:00,
2013-01-15 09:20:00,38.0,-99.9,-100.00,WSW,257,3.0,-999.0,-999,-99.99,,,-99.99,,2013-01-15 17:20:00,
2013-01-15 10:03:00,38.0,-99.9,-100.00,WSW,257,3.0,-999.0,-999,-99.99,,,-99.99,,2013-01-15 18:03:00,
2013-01-15 10:13:00,38.0,-99.9,-100.00,WSW,257,3.0,-999.0,-999,-99.99,,,-99.99,,2013-01-15 18:13:00,
2013-01-15 10:20:00,40.0,-99.9,-100.00,WNW,298,2.0,-999.0,-999,-99.99,,,-99.99,,2013-01-15 18:20:00,
2013-01-15 11:04:00,40.0,-99.9,-100.00,WNW,298,2.0,-999.0,-999,-99.99,,,-99.99,,2013-01-15 19:04:00,
2013-01-15 11:13:00,40.0,-99.9,-100.00,WNW,298,2.0,-999.0,-999,-99.99,,,-99.99,,2013-01-15 19:13:00,
2013-01-15 11:20:00,41.0,-99.9,-100.00,NW,319,5.0,-999.0,-999,-99.99,,,-99.99,,2013-01-15 19:20:00,
2013-01-15 12:04:00,41.0,-99.9,-100.00,NW,319,5.0,-999.0,-999,-99.99,,,-99.99,,2013-01-15 20:04:00,
2013-01-15 12:13:00,41.0,-99.9,-100.00,NW,319,5.0,-999.0,-999,-99.99,,,-99.99,,2013-01-15 20:13:00,
2013-01-15 12:20:00,42.0,-99.9,-100.00,NNW,347,2.0,-999.0,-999,-99.99,,,-99.99,,2013-01-15 20:20:00,
2013-01-15 13:03:00,42.0,-99.9,-100.00,NNW,347,2.0,-999.0,-999,-99.99,,,-99.99,,2013-01-15 21:03:00,
2013-01-15 13:13:00,42.0,-99.9,-100.00,NNW,347,2.0,-999.0,-999,-99.99,,,-99.99,,2013-01-15 21:13:00,
2013-01-15 13:20:00,42.0,-99.9,-100.00,NW,322,8.0,-999.0,-999,-99.99,,,-99.99,,2013-01-15 21:20:00,
2013-01-15 14:03:00,42.0,-99.9,-100.00,NW,322,8.0,-999.0,-999,-99.99,,,-99.99,,2013-01-15 22:03:00,
2013-01-15 14:13:00,42.0,-99.9,-100.00,NW,322,8.0,-999.0,-999,-99.99,,,-99.99,,2013-01-15 22:13:00,
2013-01-15 14:20:00,42.0,-99.9,-100.00,North,350,6.0,-999.0,-999,-99.99,,,-99.99,,2013-01-15 22:20:00,
2013-01-15 15:03:00,42.0,-99.9,-100.00,North,350,6.0,-999.0,-999,-99.99,,,-99.99,,2013-01-15 23:03:00,
2013-01-15 15:13:00,42.0,-99.9,-100.00,North,350,6.0,-999.0,-999,-99.99,,,-99.99,,2013-01-15 23:13:00,
2013-01-15 15:20:00,42.0,-99.9,-100.00,NNW,331,8.0,-999.0,-999,-99.99,,,-99.99,,2013-01-15 23:20:00,
2013-01-15 16:03:00,42.0,-99.9,-100.00,NNW,331,8.0,-999.0,-999,-99.99,,,-99.99,,2013-01-16 00:03:00,
2013-01-15 16:13:00,42.0,-99.9,-100.00,NNW,331,8.0,-999.0,-999,-99.99,,,-99.99,,2013-01-16 00:13:00,
2013-01-15 16:20:00,42.0,-99.9,-100.00,NW,315,10.0,-999.0,-999,-99.99,,,-99.99,,2013-01-16 00:20:00,
2013-01-15 17:03:00,42.0,-99.9,-100.00,NW,315,10.0,-999.0,-999,-99.99,,,-99.99,,2013-01-16 01:03:00,
2013-01-15 17:12:00,42.0,-99.9,-100.00,NW,315,10.0,-999.0,-999,-99.99,,,-99.99,,2013-01-16 01:12:00,
2013-01-15 17:20:00,42.0,-99.9,-100.00,NW,306,13.0,-999.0,-999,-99.99,,,-99.99,,2013-01-16 01:20:00,
2013-01-15 18:03:00,42.0,-99.9,-100.00,NW,306,13.0,-999.0,-999,-99.99,,,-99.99,,2013-01-16 02:03:00,
2013-01-15 18:12:00,42.0,-99.9,-100.00,NW,306,13.0,-999.0,-999,-99.99,,,-99.99,,2013-01-16 02:12:00,
2013-01-15 18:20:00,40.0,-99.9,-100.00,West,268,7.0,-999.0,-999,-99.99,,,-99.99,,2013-01-16 02:20:00,
2013-01-15 19:03:00,40.0,-99.9,-100.00,West,268,7.0,-999.0,-999,-99.99,,,-99.99,,2013-01-16 03:03:00,
2013-01-15 19:12:00,40.0,-99.9,-100.00,West,268,7.0,-999.0,-999,-99.99,,,-99.99,,2013-01-16 03:12:00,
2013-01-15 19:20:00,39.0,-99.9,-100.00,West,267,6.0,-999.0,-999,-99.99,,,-99.99,,2013-01-16 03:20:00,
2013-01-15 20:02:00,39.0,-99.9,-100.00,West,267,6.0,-999.0,-999,-99.99,,,-99.99,,2013-01-16 04:02:00,
2013-01-15 20:12:00,39.0,-99.9,-100.00,West,267,6.0,-999.0,-999,-99.99,,,-99.99,,2013-01-16 04:12:00,
2013-01-15 20:20:00,39.0,-99.9,-100.00,West,269,6.0,-999.0,-999,-99.99,,,-99.99,,2013-01-16 04:20:00,
2013-01-15 21:04:00,39.0,-99.9,-100.00,West,269,6.0,-999.0,-999,-99.99,,,-99.99,,2013-01-16 05:04:00,
2013-01-15 21:12:00,39.0,-99.9,-100.00,West,269,6.0,-999.0,-999,-99.99,,,-99.99,,2013-01-16 05:12:00,
2013-01-15 21:20:00,39.0,-99.9,-100.00,WNW,289,6.0,-999.0,-999,-99.99,,,-99.99,,2013-01-16 05:20:00,
2013-01-15 22:03:00,39.0,-99.9,-100.00,WNW,289,6.0,-999.0,-999,-99.99,,,-99.99,,2013-01-16 06:03:00,
2013-01-15 22:12:00,39.0,-99.9,-100.00,WNW,289,6.0,-999.0,-999,-99.99,,,-99.99,,2013-01-16 06:12:00,
2013-01-15 22:20:00,38.0,-99.9,-100.00,West,261,3.0,-999.0,-999,-99.99,,,-99.99,,2013-01-16 06:20:00,
2013-01-15 23:02:00,38.0,-99.9,-100.00,West,261,3.0,-999.0,-999,-99.99,,,-99.99,,2013-01-16 07:02:00,
2013-01-15 23:12:00,38.0,-99.9,-100.00,West,261,3.0,-999.0,-999,-99.99,,,-99.99,,2013-01-16 07:12:00,
2013-01-15 23:20:00,37.0,-99.9,-100.00,West,275,5.0,-999.0,-999,-99.99,,,-99.99,,2013-01-16 07:20:00,